Content
SEND FEEDBACK

Daily
Averages
Monthly
Summary
Mexico

CANCUN, QUINTANA ROO


Home > North America > Mexico > Quintana Roo
Elevation: 9 meters     Latitude: 21 09N     Longitude: 086 49W

WEATHER
 
SELECT A DAY
Number of Records: 164,004;   Date Range: 1/1/95 - 9/22/14
 
SHARE

PRINT THIS DATA

[ ← Previous Day ]
WEATHER ALMANAC - 8 FEBRUARY, 2014
[ Next Day → ]
[ °F ]   °C
Weather ElementAverageHighLow
Temperature23.9 °C29 °C (11:42 am)18 °C (3:47 am)
Dewpoint20.3 °C22 °C (5:40 pm)17 °C (4:46 am)
Humidity82.1 %100 % (1:44 am)58 % (12:40 pm)
Barometer1016.9 hPa1018.6 hPa (9:42 am)1015.2 hPa (2:40 pm)
Wind Speed4.5 km/h16.7 km/h (8:40 am)
Weather ElementAverage
Visibility12.4 km
Wind DirectionNE (50.4 °)

Weather ElementTotal
Precipitation---
Cooling Degree Days5.2 (Base 18.3)
Growing Degree Days13.5 (Base 10)
Averaged from 23 records on 8 February, 2014
WEATHER CONDITIONS BREAKOUT
WIND DIRECTION BREAKOUT
WEATHER BY HOUR - 8 FEBRUARY, 2014
[ °F ]   °C
Local TimeTemperatureDewpointHumidityBarometerVisibilityWind DirectionWind SpeedGust SpeedPrecipitationEventsConditions
1:44 AM21 °C21 °C100 %1016.9 hPa12.9 kmCalmClear
2:48 AM19 °C18 °C94 %1015.6 hPa12.9 kmCalmPartly Cloudy
3:47 AM18 °C18 °C100 %1016.3 hPa12.9 kmCalmScattered Clouds
4:46 AM18 °C17 °C94 %1016.6 hPa12.9 kmCalmScattered Clouds
5:45 AM18 °C18 °C100 %1016.9 hPa12.9 kmCalmScattered Clouds
6:46 AM18 °C17 °C94 %1017.3 hPa12.9 kmCalmScattered Clouds
7:42 AM22 °C21 °C94 %1017.6 hPa12.9 kmCalmScattered Clouds
8:40 AM27 °C21 °C70 %1017.3 hPa12.9 kmSE (140°)16.7 km/hMostly Cloudy
9:42 AM27 °C21 °C70 %1018.6 hPa12.9 kmESE (120°)13 km/hMostly Cloudy
10:40 AM28 °C20 °C62 %1018.6 hPa12.9 kmSE (140°)9.3 km/hMostly Cloudy
11:42 AM29 °C21 °C62 %1016.9 hPa12.9 kmENE (60°)5.6 km/hMostly Cloudy
12:40 PM29 °C20 °C58 %1016.6 hPa12.9 kmSE (130°)9.3 km/hScattered Clouds
1:41 PM29 °C20 °C58 %1016.3 hPa12.9 kmSE (130°)11.1 km/hScattered Clouds
2:40 PM29 °C20 °C58 %1015.2 hPa12.9 kmESE (110°)9.3 km/hScattered Clouds
3:43 PM28 °C20 °C62 %1015.9 hPa12.9 kmSSE (150°)7.4 km/hScattered Clouds
4:42 PM27 °C21 °C70 %1016.3 hPa12.9 kmEast (80°)9.3 km/hPartly Cloudy
5:40 PM25 °C22 °C83 %1016.3 hPa11.3 kmENE (60°)3.7 km/hPartly Cloudy
6:44 PM24 °C22 °C89 %1017.6 hPa11.3 kmCalmClear
7:42 PM23 °C22 °C94 %1017.9 hPa11.3 kmNNE (20°)3.7 km/hClear
8:40 PM23 °C22 °C94 %1017.6 hPa11.3 kmCalmScattered Clouds
9:45 PM23 °C22 °C94 %1018.3 hPa11.3 kmCalmPartly Cloudy
10:45 PM23 °C22 °C94 %1018.6 hPa11.3 kmNNE (20°)3.7 km/hScattered Clouds
11:47 PM21 °C20 °C94 %1016.9 hPa11.3 kmCalmPartly Cloudy
Hourly data recorded from MMUN, located 0 kilometers away from Cancun, Quintana Roo







STORIES FROM OUR PARTNERS